Time,TemperatureF,DewpointF,PressureIn,WindDirection,WindDirectionDegrees,WindSpeedMPH,WindSpeedGustMPH,Humidity,HourlyPrecipIn,Conditions,Clouds,dailyrainin,SoftwareType,DateUTC
2013-02-28 00:01:00,28.0,25.0,30.12,WSW,257,0.0,1.0,89,0.00,,,0.00,,2013-02-28 06:01:00,
2013-02-28 00:11:00,28.0,25.0,30.12,WSW,257,0.0,1.0,89,0.00,,,0.00,,2013-02-28 06:11:00,
2013-02-28 00:22:00,28.0,25.0,30.12,WSW,249,0.0,4.0,90,0.00,,,0.00,,2013-02-28 06:22:00,
2013-02-28 00:32:00,30.0,27.0,30.12,West,271,0.0,4.0,87,0.00,,,0.00,,2013-02-28 06:32:00,
2013-02-28 00:42:00,30.0,27.0,30.12,West,271,0.0,4.0,87,0.00,,,0.00,,2013-02-28 06:42:00,
2013-02-28 00:51:00,29.0,26.0,30.12,West,269,0.0,2.0,87,0.00,,,0.00,,2013-02-28 06:51:00,
2013-02-28 01:01:00,28.0,25.0,30.13,West,270,0.0,4.0,88,0.00,,,0.00,,2013-02-28 07:01:00,
2013-02-28 01:11:00,28.0,25.0,30.13,West,270,0.0,4.0,88,0.00,,,0.00,,2013-02-28 07:11:00,
2013-02-28 01:21:00,28.0,25.0,30.14,West,270,0.0,2.0,90,0.00,,,0.00,,2013-02-28 07:21:00,
2013-02-28 01:32:00,28.0,25.0,30.14,West,269,0.0,0.0,89,0.00,,,0.00,,2013-02-28 07:32:00,
2013-02-28 01:41:00,28.0,25.0,30.14,West,269,0.0,0.0,89,0.00,,,0.00,,2013-02-28 07:41:00,
2013-02-28 01:51:00,28.0,26.0,30.14,West,269,0.0,1.0,91,0.00,,,0.00,,2013-02-28 07:51:00,
2013-02-28 02:01:00,27.0,24.0,30.14,West,261,0.0,2.0,90,0.00,,,0.00,,2013-02-28 08:01:00,
2013-02-28 02:11:00,27.0,24.0,30.14,West,261,0.0,2.0,90,0.00,,,0.00,,2013-02-28 08:11:00,
2013-02-28 02:22:00,26.0,24.0,30.13,West,261,0.0,1.0,91,0.00,,,0.00,,2013-02-28 08:22:00,
2013-02-28 02:32:00,26.0,24.0,30.14,West,261,0.0,0.0,92,0.00,,,0.00,,2013-02-28 08:32:00,
2013-02-28 02:42:00,26.0,24.0,30.14,West,261,0.0,0.0,92,0.00,,,0.00,,2013-02-28 08:42:00,
2013-02-28 02:52:00,26.0,24.0,30.14,West,261,0.0,1.0,92,0.00,,,0.00,,2013-02-28 08:52:00,
2013-02-28 03:03:00,26.0,24.0,30.14,NW,308,0.0,2.0,93,0.00,,,0.00,,2013-02-28 09:03:00,
2013-02-28 03:11:00,26.0,24.0,30.14,NW,308,0.0,2.0,93,0.00,,,0.00,,2013-02-28 09:11:00,
2013-02-28 03:22:00,26.0,25.0,30.14,WNW,286,0.0,2.0,94,0.00,,,0.00,,2013-02-28 09:22:00,
2013-02-28 03:32:00,27.0,26.0,30.15,West,263,0.0,4.0,94,0.00,,,0.00,,2013-02-28 09:32:00,
2013-02-28 03:41:00,27.0,25.0,30.15,West,259,0.0,1.0,93,0.00,,,0.00,,2013-02-28 09:41:00,
2013-02-28 03:42:00,27.0,26.0,30.15,West,263,0.0,4.0,94,0.00,,,0.00,,2013-02-28 09:42:00,
2013-02-28 03:52:00,27.0,25.0,30.15,West,259,0.0,2.0,93,0.00,,,0.00,,2013-02-28 09:52:00,
2013-02-28 04:02:00,27.0,25.0,30.15,West,259,0.0,1.0,93,0.00,,,0.00,,2013-02-28 10:02:00,
2013-02-28 04:11:00,27.0,25.0,30.15,West,259,0.0,1.0,93,0.00,,,0.00,,2013-02-28 10:11:00,
2013-02-28 04:22:00,27.0,25.0,30.15,West,259,0.0,1.0,93,0.00,,,0.00,,2013-02-28 10:22:00,
2013-02-28 04:32:00,27.0,25.0,30.15,West,259,0.0,1.0,93,0.00,,,0.00,,2013-02-28 10:32:00,
2013-02-28 04:52:00,25.0,23.0,30.15,West,259,0.0,0.0,93,0.00,,,0.00,,2013-02-28 10:52:00,
2013-02-28 05:01:00,24.0,23.0,30.15,West,259,0.0,0.0,94,0.00,,,0.00,,2013-02-28 11:01:00,
2013-02-28 05:11:00,24.0,23.0,30.15,West,259,0.0,0.0,94,0.00,,,0.00,,2013-02-28 11:11:00,
2013-02-28 05:22:00,24.0,23.0,30.15,West,259,0.0,1.0,94,0.00,,,0.00,,2013-02-28 11:22:00,
2013-02-28 05:32:00,24.0,23.0,30.16,West,259,0.0,1.0,95,0.00,,,0.00,,2013-02-28 11:32:00,
2013-02-28 05:42:00,24.0,23.0,30.16,West,259,0.0,1.0,95,0.00,,,0.00,,2013-02-28 11:42:00,
2013-02-28 05:52:00,24.0,23.0,30.16,West,259,0.0,0.0,95,0.00,,,0.00,,2013-02-28 11:52:00,
2013-02-28 06:02:00,24.0,23.0,30.17,West,259,0.0,0.0,95,0.00,,,0.00,,2013-02-28 12:02:00,
2013-02-28 06:11:00,24.0,23.0,30.17,West,259,0.0,0.0,95,0.00,,,0.00,,2013-02-28 12:11:00,
2013-02-28 06:22:00,24.0,23.0,30.17,West,259,0.0,0.0,95,0.00,,,0.00,,2013-02-28 12:22:00,
2013-02-28 06:32:00,24.0,23.0,30.17,West,259,0.0,0.0,95,0.00,,,0.00,,2013-02-28 12:32:00,
2013-02-28 06:42:00,24.0,23.0,30.17,West,259,0.0,0.0,95,0.00,,,0.00,,2013-02-28 12:42:00,
2013-02-28 06:52:00,24.0,23.0,30.17,West,259,0.0,0.0,95,0.00,,,0.00,,2013-02-28 12:52:00,
2013-02-28 07:02:00,23.0,22.0,30.18,WSW,258,0.0,0.0,95,0.00,,,0.00,,2013-02-28 13:02:00,
2013-02-28 07:11:00,23.0,22.0,30.18,WSW,258,0.0,0.0,95,0.00,,,0.00,,2013-02-28 13:11:00,
2013-02-28 07:22:00,25.0,24.0,30.18,WSW,258,0.0,4.0,96,0.00,,,0.00,,2013-02-28 13:22:00,
2013-02-28 07:32:00,28.0,27.0,30.19,West,272,0.0,4.0,97,0.00,,,0.00,,2013-02-28 13:32:00,
2013-02-28 07:42:00,28.0,27.0,30.19,West,272,0.0,4.0,97,0.00,,,0.00,,2013-02-28 13:42:00,
2013-02-28 07:52:00,29.0,27.0,30.19,West,277,1.0,3.0,93,0.00,,,0.00,,2013-02-28 13:52:00,
2013-02-28 08:01:00,29.0,27.0,30.20,West,271,0.0,7.0,91,0.00,,,0.00,,2013-02-28 14:01:00,
2013-02-28 08:11:00,29.0,27.0,30.20,West,271,0.0,7.0,91,0.00,,,0.00,,2013-02-28 14:11:00,
2013-02-28 08:22:00,30.0,28.0,30.20,West,277,1.0,9.0,91,0.00,,,0.00,,2013-02-28 14:22:00,
2013-02-28 08:32:00,30.0,27.0,30.20,West,270,2.0,9.0,89,0.00,,,0.00,,2013-02-28 14:32:00,
2013-02-28 08:42:00,30.0,27.0,30.20,West,270,2.0,9.0,89,0.00,,,0.00,,2013-02-28 14:42:00,
2013-02-28 08:52:00,31.0,28.0,30.21,NW,311,0.0,8.0,88,0.00,,,0.00,,2013-02-28 14:52:00,
2013-02-28 09:02:00,31.0,28.0,30.21,West,272,2.0,7.0,89,0.00,,,0.00,,2013-02-28 15:02:00,
2013-02-28 09:11:00,31.0,28.0,30.21,West,272,2.0,7.0,89,0.00,,,0.00,,2013-02-28 15:11:00,
2013-02-28 09:21:00,31.0,28.0,30.21,West,272,3.0,7.0,87,0.00,,,0.00,,2013-02-28 15:21:00,
2013-02-28 09:32:00,32.0,28.0,30.21,West,273,1.0,10.0,85,0.00,,,0.00,,2013-02-28 15:32:00,
2013-02-28 09:42:00,32.0,28.0,30.21,West,273,1.0,10.0,85,0.00,,,0.00,,2013-02-28 15:42:00,
2013-02-28 09:52:00,32.0,27.0,30.21,West,281,5.0,10.0,83,0.00,,,0.00,,2013-02-28 15:52:00,
2013-02-28 10:01:00,32.0,27.0,30.21,West,281,5.0,10.0,83,0.00,,,0.00,,2013-02-28 16:01:00,
2013-02-28 10:11:00,32.0,27.0,30.21,West,281,5.0,10.0,83,0.00,,,0.00,,2013-02-28 16:11:00,
2013-02-28 10:22:00,33.0,28.0,30.22,NNW,333,5.0,11.0,81,0.00,,,0.00,,2013-02-28 16:22:00,
2013-02-28 10:32:00,33.0,28.0,30.22,NNW,333,5.0,11.0,81,0.00,,,0.00,,2013-02-28 16:32:00,
2013-02-28 10:42:00,33.0,28.0,30.22,NNW,333,5.0,11.0,81,0.00,,,0.00,,2013-02-28 16:42:00,
2013-02-28 10:52:00,33.0,28.0,30.22,NW,317,3.0,11.0,81,0.00,,,0.00,,2013-02-28 16:52:00,
2013-02-28 11:02:00,34.0,28.0,30.21,WNW,292,3.0,8.0,80,0.00,,,0.00,,2013-02-28 17:02:00,
2013-02-28 11:12:00,36.0,29.0,30.21,WNW,292,2.0,9.0,77,0.00,,,0.00,,2013-02-28 17:12:00,
2013-02-28 11:22:00,36.0,29.0,30.21,WNW,292,2.0,9.0,77,0.00,,,0.00,,2013-02-28 17:22:00,
2013-02-28 11:32:00,35.0,29.0,30.21,West,266,4.0,8.0,78,0.00,,,0.00,,2013-02-28 17:32:00,
2013-02-28 11:42:00,35.0,29.0,30.21,West,266,4.0,8.0,78,0.00,,,0.00,,2013-02-28 17:42:00,
2013-02-28 11:52:00,35.0,29.0,30.21,West,277,4.0,9.0,77,0.00,,,0.00,,2013-02-28 17:52:00,
2013-02-28 12:02:00,35.0,29.0,30.22,WNW,296,3.0,9.0,78,0.00,,,0.00,,2013-02-28 18:02:00,
2013-02-28 12:11:00,35.0,29.0,30.22,WNW,296,3.0,9.0,78,0.00,,,0.00,,2013-02-28 18:11:00,
2013-02-28 12:22:00,35.0,29.0,30.22,West,263,4.0,10.0,79,0.00,,,0.00,,2013-02-28 18:22:00,
2013-02-28 12:32:00,35.0,29.0,30.22,West,275,2.0,7.0,78,0.00,,,0.00,,2013-02-28 18:32:00,
2013-02-28 12:42:00,35.0,29.0,30.22,West,275,2.0,7.0,78,0.00,,,0.00,,2013-02-28 18:42:00,
2013-02-28 12:52:00,35.0,29.0,30.22,WSW,256,1.0,7.0,79,0.00,,,0.00,,2013-02-28 18:52:00,
2013-02-28 13:02:00,35.0,29.0,30.22,West,279,3.0,8.0,77,0.00,,,0.00,,2013-02-28 19:02:00,
2013-02-28 13:11:00,35.0,29.0,30.22,West,279,3.0,8.0,77,0.00,,,0.00,,2013-02-28 19:11:00,
2013-02-28 13:21:00,35.0,29.0,30.22,WNW,290,2.0,6.0,78,0.00,,,0.00,,2013-02-28 19:21:00,
2013-02-28 13:32:00,35.0,29.0,30.22,WSW,257,3.0,8.0,78,0.00,,,0.00,,2013-02-28 19:32:00,
2013-02-28 13:42:00,35.0,29.0,30.22,WSW,257,3.0,8.0,78,0.00,,,0.00,,2013-02-28 19:42:00,
2013-02-28 13:51:00,35.0,29.0,30.22,WNW,282,1.0,7.0,78,0.00,,,0.00,,2013-02-28 19:51:00,
2013-02-28 14:01:00,35.0,29.0,30.22,West,261,2.0,7.0,77,0.00,,,0.00,,2013-02-28 20:01:00,
2013-02-28 14:12:00,35.0,29.0,30.22,West,261,2.0,7.0,77,0.00,,,0.00,,2013-02-28 20:12:00,
2013-02-28 14:22:00,35.0,29.0,30.21,West,263,1.0,6.0,77,0.00,,,0.00,,2013-02-28 20:22:00,
2013-02-28 14:32:00,35.0,28.0,30.22,WNW,286,1.0,6.0,76,0.00,,,0.00,,2013-02-28 20:32:00,
2013-02-28 14:42:00,35.0,28.0,30.22,WNW,286,1.0,6.0,76,0.00,,,0.00,,2013-02-28 20:42:00,
2013-02-28 14:52:00,35.0,28.0,30.22,West,273,4.0,7.0,76,0.00,,,0.00,,2013-02-28 20:52:00,
2013-02-28 15:02:00,35.0,28.0,30.22,NW,304,2.0,7.0,75,0.00,,,0.00,,2013-02-28 21:02:00,
2013-02-28 15:11:00,35.0,28.0,30.22,NW,304,2.0,7.0,75,0.00,,,0.00,,2013-02-28 21:11:00,
2013-02-28 15:22:00,35.0,28.0,30.22,WSW,258,3.0,7.0,75,0.00,,,0.00,,2013-02-28 21:22:00,
2013-02-28 15:32:00,36.0,29.0,30.21,WNW,284,2.0,7.0,75,0.00,,,0.00,,2013-02-28 21:32:00,
2013-02-28 15:42:00,36.0,29.0,30.21,WNW,284,2.0,7.0,75,0.00,,,0.00,,2013-02-28 21:42:00,
2013-02-28 15:52:00,36.0,29.0,30.21,WSW,254,4.0,8.0,75,0.00,,,0.00,,2013-02-28 21:52:00,
2013-02-28 16:01:00,36.0,28.0,30.22,West,274,2.0,8.0,73,0.00,,,0.00,,2013-02-28 22:01:00,
2013-02-28 16:11:00,36.0,28.0,30.22,West,274,2.0,8.0,73,0.00,,,0.00,,2013-02-28 22:11:00,
2013-02-28 16:22:00,36.0,29.0,30.21,West,277,2.0,8.0,74,0.00,,,0.00,,2013-02-28 22:22:00,
2013-02-28 16:32:00,36.0,28.0,30.21,West,280,2.0,7.0,72,0.00,,,0.00,,2013-02-28 22:32:00,
2013-02-28 16:42:00,36.0,28.0,30.21,West,280,2.0,7.0,72,0.00,,,0.00,,2013-02-28 22:42:00,
2013-02-28 16:52:00,35.0,28.0,30.21,West,279,3.0,9.0,74,0.00,,,0.00,,2013-02-28 22:52:00,
2013-02-28 17:01:00,35.0,28.0,30.21,West,280,3.0,7.0,74,0.00,,,0.00,,2013-02-28 23:01:00,
2013-02-28 17:11:00,35.0,28.0,30.21,West,280,3.0,7.0,74,0.00,,,0.00,,2013-02-28 23:11:00,
2013-02-28 17:22:00,35.0,28.0,30.21,West,269,3.0,8.0,74,0.00,,,0.00,,2013-02-28 23:22:00,
2013-02-28 17:32:00,35.0,28.0,30.21,West,267,1.0,4.0,75,0.00,,,0.00,,2013-02-28 23:32:00,
2013-02-28 17:41:00,35.0,28.0,30.21,West,267,1.0,4.0,75,0.00,,,0.00,,2013-02-28 23:41:00,
2013-02-28 17:52:00,35.0,28.0,30.22,WNW,282,1.0,7.0,75,0.00,,,0.00,,2013-02-28 23:52:00,
2013-02-28 18:01:00,35.0,28.0,30.22,West,265,1.0,5.0,76,0.00,,,0.00,,2013-03-01 00:01:00,
2013-02-28 18:11:00,35.0,28.0,30.22,West,265,1.0,5.0,76,0.00,,,0.00,,2013-03-01 00:11:00,
2013-02-28 18:22:00,35.0,28.0,30.22,West,273,2.0,7.0,76,0.00,,,0.00,,2013-03-01 00:22:00,
2013-02-28 18:32:00,35.0,28.0,30.22,WNW,284,1.0,5.0,76,0.00,,,0.00,,2013-03-01 00:32:00,
2013-02-28 18:41:00,35.0,28.0,30.22,WNW,284,1.0,5.0,76,0.00,,,0.00,,2013-03-01 00:41:00,
2013-02-28 18:51:00,35.0,29.0,30.22,West,277,1.0,5.0,77,0.00,,,0.00,,2013-03-01 00:51:00,
2013-02-28 19:01:00,35.0,29.0,30.23,West,267,0.0,2.0,78,0.00,,,0.00,,2013-03-01 01:01:00,
2013-02-28 19:11:00,35.0,29.0,30.23,West,267,0.0,2.0,78,0.00,,,0.00,,2013-03-01 01:11:00,
2013-02-28 19:21:00,34.0,28.0,30.23,WSW,249,0.0,3.0,77,0.00,,,0.00,,2013-03-01 01:21:00,
2013-02-28 19:32:00,34.0,28.0,30.23,West,275,0.0,2.0,78,0.00,,,0.00,,2013-03-01 01:32:00,
2013-02-28 19:42:00,34.0,28.0,30.23,West,275,0.0,2.0,78,0.00,,,0.00,,2013-03-01 01:42:00,
2013-02-28 19:51:00,34.0,28.0,30.23,West,275,0.0,2.0,78,0.00,,,0.00,,2013-03-01 01:51:00,
2013-02-28 20:01:00,34.0,28.0,30.23,NNW,327,1.0,7.0,78,0.00,,,0.00,,2013-03-01 02:01:00,
2013-02-28 20:11:00,34.0,28.0,30.23,NNW,327,1.0,7.0,78,0.00,,,0.00,,2013-03-01 02:11:00,
2013-02-28 20:21:00,34.0,28.0,30.23,WNW,288,0.0,1.0,78,0.00,,,0.00,,2013-03-01 02:21:00,
2013-02-28 20:32:00,34.0,28.0,30.23,West,281,0.0,2.0,80,0.00,,,0.00,,2013-03-01 02:32:00,
2013-02-28 20:42:00,34.0,28.0,30.23,West,281,0.0,2.0,80,0.00,,,0.00,,2013-03-01 02:42:00,
2013-02-28 20:52:00,34.0,28.0,30.23,West,281,0.0,2.0,80,0.00,,,0.00,,2013-03-01 02:52:00,
2013-02-28 21:02:00,34.0,28.0,30.23,West,281,0.0,2.0,78,0.00,,,0.00,,2013-03-01 03:02:00,
2013-02-28 21:11:00,34.0,28.0,30.23,West,281,0.0,2.0,78,0.00,,,0.00,,2013-03-01 03:11:00,
2013-02-28 21:21:00,33.0,28.0,30.23,West,277,0.0,2.0,80,0.00,,,0.00,,2013-03-01 03:21:00,
2013-02-28 21:32:00,33.0,27.0,30.23,West,267,0.0,4.0,79,0.00,,,0.00,,2013-03-01 03:32:00,
2013-02-28 21:42:00,33.0,27.0,30.23,West,267,0.0,4.0,79,0.00,,,0.00,,2013-03-01 03:42:00,
2013-02-28 21:51:00,33.0,27.0,30.23,West,274,0.0,6.0,77,0.00,,,0.00,,2013-03-01 03:51:00,
2013-02-28 22:01:00,33.0,27.0,30.24,WNW,282,0.0,5.0,77,0.00,,,0.00,,2013-03-01 04:01:00,
2013-02-28 22:11:00,33.0,27.0,30.24,WNW,282,0.0,5.0,77,0.00,,,0.00,,2013-03-01 04:11:00,
2013-02-28 22:21:00,33.0,27.0,30.24,West,274,0.0,2.0,78,0.00,,,0.00,,2013-03-01 04:21:00,
2013-02-28 22:32:00,33.0,27.0,30.24,West,274,0.0,2.0,78,0.00,,,0.00,,2013-03-01 04:32:00,
2013-02-28 22:42:00,33.0,27.0,30.24,West,274,0.0,2.0,78,0.00,,,0.00,,2013-03-01 04:42:00,
2013-02-28 22:52:00,33.0,27.0,30.24,West,275,1.0,5.0,79,0.00,,,0.00,,2013-03-01 04:52:00,
2013-02-28 23:02:00,32.0,26.0,30.24,NW,311,0.0,6.0,79,0.00,,,0.00,,2013-03-01 05:02:00,
2013-02-28 23:11:00,32.0,26.0,30.24,NW,311,0.0,6.0,79,0.00,,,0.00,,2013-03-01 05:11:00,
2013-02-28 23:22:00,32.0,27.0,30.24,WSW,256,0.0,6.0,80,0.00,,,0.00,,2013-03-01 05:22:00,
2013-02-28 23:32:00,32.0,27.0,30.23,West,279,1.0,5.0,80,0.00,,,0.00,,2013-03-01 05:32:00,
2013-02-28 23:42:00,32.0,27.0,30.23,West,279,1.0,5.0,80,0.00,,,0.00,,2013-03-01 05:42:00,
2013-02-28 23:52:00,32.0,27.0,30.23,WSW,255,0.0,4.0,81,0.00,,,0.00,,2013-03-01 05:52:00,